ONEWEB-0271, 48989

Orbit data source: Space-Track

ONEWEB-0271, 48989 is a payload satellite owned by One Web (NAA) (UK) in LEO that was launched on Thu, 01 Jul 2021 UTC via a SOYUZ-2-1B launch vehicle from the Vostochny Cosmodrome (VOSTO). Payload-class satellites include a variety of spacecraft equipped with specific instruments for various scientific and technological missions. These include communications satellites like Starlink; space stations such as the ISS; scientific satellites like the Hubble; Earth observation satellites from companies like Planet Labs, Umbra, and HawkEye 360; GPS; miniature CubeSats for education and research; and military/defense satellites.

Loading next visibility...
Identifier
48989, 2021-060Y
Orbit
LEO
Country
Flag of UKUK
Related business
Manufacturer
One Web
Mission
Operational Commercial Communications
Bus & Motor
ARROW, Unknown motor
Mass
148 kg wet, ~140 kg dry
Launch date (UTC)
2021-07-01 (4 years ago)
Launch vehicle
SOYUZ-2-1B
Launch site
Vostochny Cosmodrome (VOSTO)
Object type
Payload
Rocket body
Debris
Shape & HBR
Trap Box + 2 Pan, 6.7 m
Radar Cross Section
3.464 m², Large (>1 m²)

Expand to show TLE details & history
Last TLE update: 19 hours ago

TLE from 19 hours ago
0 ONEWEB-0271
1 48989U 21060Y   25348.80222792 -.00000050  00000-0 -16432-3 0  9997
2 48989  87.9051 265.4858 0001936  69.7532 290.3807 13.16595668215400
Epoch: 2025-12-14T19:15Z
TLE epoch observation values (Epoch: 2025-12-14T19:15:12.492Z)
Latitude
-0°
Longitude
-107.02617°
Altitude
1,200.137 km
Speed
7.254 km/s
True Right ascension
17h 41m 56s
True Declination
0° 00' 00"
Sunlit
Object was in daylight at epoch
Visualization orbit readout
Latitude
Unknown
Longitude
Unknown
Altitude
Unknown
Speed
Unknown
Apparent Right ascension
Unknown
Apparent Declination
Unknown
Sunlit
N/A
Visualization observer readout
Local Sidereal Time
13:18:58
Azimuth
Unknown
Elevation
Unknown
Doppler factor
Unknown
Orbital elements
Apogee altitude
1,196.328 km
Perigee altitude
1,193.396 km
Semi-major axis
7,572.999 km
Eccentricity
0.00019
Inclination
87.9051°
RAAN
265.4858°
Arg. of periapsis
69.7532°
True anomaly
290.3599°
Mean anomaly
290.3807°
Eccentric anomaly
290.3703°
Mean motion
3.29338 °/min
Orbital period
109.31 mins
BSTAR
-0.00016432
Loading maneuver chart data...
Computing Atmospheric mass density...
Loading historical data...
Loading historical data...
Loading historical data...
Loading historical data...
Loading historical data...
Loading historical data...
Loading historical data...

Documentation

Showing up to 5 results
|